Flag for U.S.A. Weather past 2 weeks in Paterson, New Jersey, U.S.A.

Now
62 °F

Passing clouds.


Feels Like: 62 °F
Forecast: 60 / 68 °F
Wind: 7 mph from Northeast

Location: Essex County Airport

Current Time: Oct 1, 2014 at 2:11:29 AM

Latest Report: Oct 1, 2014 at 12:53 AM


Visibility: 10 mi

Pressure: 30.01 "Hg

Humidity: 78%

Dew point: 55 °F

Location of PatersonLocation

Historic Weather in Paterson — Graph

°F

Paterson temperature yesterday

Maximum temperature yesterday: 70 °F (at 10:53 AM)
Minimum temperature yesterday: 62 °F (at 4:53 AM)
Average temperature yesterday: 65 °F

Past Weeks' High & Low Weather Summary

 TemperatureHumidityPressure
High84 °F (Sep 27, 3:53 PM)94% (Sep 21, 4:53 AM)30.58 "Hg (Sep 21, 4:53 AM)
Low43 °F (Sep 23, 5:53 AM)31% (Sep 17, 3:53 PM)29.63 "Hg (Sep 21, 6:53 PM)
Average63 °F69%30.14 "Hg
* Reported Sep 16 12:53 AM — Oct 1 12:53 AM, Paterson, Weather by CustomWeather, © 2014

Note: Actual official high and low records may vary slightly from our data, if they occured in-between our weather recording intervals... More about our weather records

Advertising

Paterson weather history for previous 24 hours

 ConditionsComfort  
Time TempWeatherWind HumidityBarometerVisibility
12:53 AM
Oct 1
62 °FPassing clouds.7 mph78%30.01 "Hg10 mi
11:53 PM
Sep 30
62 °FOvercast.8 mph78%30.01 "Hg10 mi
10:53 PM62 °FOvercast.6 mph80%30.01 "Hg10 mi
9:53 PM62 °FPassing clouds.No wind80%30.00 "Hg10 mi
8:53 PM63 °FOvercast.5 mph78%29.99 "Hg10 mi
7:53 PM62 °FClear.5 mph80%29.97 "Hg10 mi
6:53 PM64 °FSunny.7 mph75%29.96 "Hg10 mi
5:53 PM67 °FScattered clouds.7 mph71%29.95 "Hg10 mi
4:53 PM69 °FPartly sunny.8 mph68%29.95 "Hg10 mi
3:53 PM69 °FScattered clouds.9 mph66%29.95 "Hg10 mi
3:00 PM69 °FScattered clouds.12 mph66%29.94 "Hg10 mi
1:53 PM70 °FCloudy.10 mph66%29.96 "Hg10 mi
12:53 PM68 °FOvercast.8 mph73%29.97 "Hg10 mi
11:53 AM69 °FMostly cloudy.8 mph70%29.96 "Hg10 mi
10:53 AM70 °FMostly cloudy.7 mph71%29.97 "Hg8 mi
9:53 AM69 °FScattered clouds.5 mph63%29.98 "Hg10 mi
8:53 AM66 °FSunny.No wind78%29.98 "Hg8 mi
7:53 AM63 °FOvercast.No wind84%29.98 "Hg9 mi
6:53 AM62 °FOvercast.No wind86%29.96 "Hg9 mi
5:53 AM62 °FOvercast.No wind86%29.95 "Hg9 mi
4:53 AM62 °FPassing clouds.No wind86%29.94 "Hg10 mi
3:53 AM63 °FClear.No wind84%29.94 "Hg10 mi
2:53 AM65 °FOvercast.No wind78%29.94 "Hg10 mi
Weather by CustomWeather, © 2014

See weather overviewHow to use our weather pages